#timestamp,LO_Frequency,Hit 
1501297215.2,286047033.0,N
1501297235.1,286047035.9,N
1501297236.0,286047035.9,N
1501297255.8,286047036.2,N
1501297275.6,286047034.8,N
1501297295.5,286047031.8,N
1501297315.3,286047037.8,N
1501297335.1,286047034.0,N
1501297355.9,286047035.8,N
1501297375.7,286047038.9,N
1501297395.5,286047038.3,N
1501297415.3,286047039.3,N
1501297435.2,286047038.0,N
1501297455.0,286047035.1,N
1501297455.9,286047035.1,N
1501297475.7,286047038.2,N
1501297495.6,286047038.1,N
1501297515.4,286047037.9,N
1501297535.2,286047034.9,N
1501297555.1,286047036.3,N
1501297556.0,286047036.3,N
1501297575.8,286047033.0,N
1501297595.6,286047030.9,N
1501297615.5,286047031.1,N
1501297635.3,286047030.5,N
1501297655.1,286047037.9,N
1501297675.8,286047040.3,N
1501297695.7,286047038.2,N
1501297715.5,286047040.6,N
1501297735.3,286047037.7,N
1501297755.2,286047034.6,N
1501297775.9,286047032.7,N
1501297795.7,286047037.2,N
1501297815.6,286047039.8,N
1501297835.4,286047038.3,N
1501297855.2,286047038.6,N
1501297875.1,286047040.2,N
1501297876.0,286047040.2,N
1501297895.8,286047043.8,N
1501297915.6,286047041.9,N
1501297935.5,286047040.5,N
1501297955.3,286047036.3,N
1501297975.1,286047041.1,N
1501297995.8,286047040.4,N
1501298015.7,286047040.5,N
1501298035.5,286047039.1,N
1501298055.3,286047034.5,N
1501298075.2,286047033.2,N
1501298095.9,286047033.4,N
1501298115.7,286047039.2,N
1501298135.6,286047035.3,N
1501298155.4,286047039.1,N
1501298175.2,286047035.3,N
1501298195.0,286047037.5,N
1501298196.0,286047037.5,N
1501298215.8,286047037.5,N
1501298235.6,286047036.4,N
1501298255.4,286047036.0,N
1501298275.3,286047037.7,N
1501298295.1,286047040.9,N
1501298315.8,286047035.0,N
1501298335.7,286047037.2,N
1501298355.5,286047042.8,N
1501298375.3,286047040.1,N
1501298395.2,286047040.8,N
1501298415.9,286047038.9,N
1501298435.7,286047035.8,N
1501298455.6,286047037.5,N
1501298475.4,286047036.9,N
1501298495.2,286047036.0,N
1501298515.0,286047037.5,N
1501298516.0,286047037.5,N
1501298535.8,286047039.5,N
1501298555.6,286047038.9,N
1501298575.4,286047038.1,N
1501298595.3,286047035.2,N
1501298615.1,286047036.2,N
1501298635.8,286047033.9,N
1501298655.7,286047035.7,N
1501298675.5,286047036.5,N
1501298695.3,286047041.1,N
1501298715.2,286047040.6,N
1501298735.9,286047037.0,N
1501298755.7,286047038.6,N
1501298775.6,286047037.8,N
1501298795.4,286047037.1,N
1501298815.2,286047039.1,N
1501298835.0,286047039.1,N
1501298835.9,286047039.1,N
1501298855.8,286047041.1,Y
1501298875.6,286047003.6,N
1501298895.4,286047005.7,N
1501298915.3,286047003.3,N
1501298935.1,286047005.6,N
1501298955.8,286047008.5,N
1501298975.7,286047006.5,N
1501298995.5,286047006.7,N
1501299015.3,286047009.1,N
1501299035.2,286047009.7,N
1501299055.9,286047011.1,N
1501299075.7,286047009.4,N
1501299095.6,286047007.1,N
1501299115.4,286047002.7,N
1501299135.2,286047003.4,N
1501299155.0,286047003.4,N
1501299155.9,286047003.4,N
1501299175.8,286047003.2,N
1501299195.6,286047004.9,N
1501299215.4,286047006.3,N
1501299235.3,286047003.4,N
1501299255.1,286047005.5,N
1501299275.8,286047008.2,N
1501299295.7,286047008.6,N
1501299315.5,286047006.2,N
1501299335.3,286047006.0,N
1501299355.2,286047004.4,N
1501299375.9,286047007.0,N
1501299395.7,286047005.4,N
1501299415.6,286047003.9,N
1501299435.4,286047003.0,N
1501299455.2,286047006.8,N
1501299475.0,286047008.5,N
1501299475.9,286047008.5,N
1501299495.8,286047005.7,N
1501299515.6,286047003.8,N
1501299535.4,286047007.1,N
1501299555.3,286047005.2,N
1501299575.1,286047002.6,N
1501299595.8,286047001.9,N
1501299615.7,286047000.6,N
1501299635.5,286046999.1,N
1501299655.3,286046999.3,N
1501299675.2,286047003.8,N
1501299695.9,286047003.9,N
1501299715.7,286047002.0,N
1501299735.5,286047001.6,N
1501299755.4,286047003.7,N
1501299775.2,286047003.6,N
1501299795.0,286047003.0,N
1501299795.9,286047003.0,N
1501299815.8,286047005.6,N
1501299835.6,286047000.1,N
1501299855.4,286047004.2,N
1501299875.3,286047003.0,N
1501299895.1,286047004.6,N
1501299896.0,286047004.6,N
1501299915.8,286047005.5,N
1501299935.7,286047003.4,N
1501299955.5,286047006.1,N
1501299975.3,286047005.9,N
1501299995.1,286047009.2,N
1501300015.9,286047010.1,N
1501300035.7,286047007.7,N
1501300055.5,286047007.7,N
1501300075.4,286047006.9,N
1501300095.2,286047005.5,N
1501300115.0,286047005.6,N
1501300115.9,286047005.6,N
1501300135.8,286047005.0,N
1501300155.6,286047007.9,N
1501300175.4,286047006.6,N
1501300195.3,286047010.5,N
1501300215.1,286047009.5,N
1501300216.0,286047009.5,N
1501300235.8,286047006.3,N
1501300255.7,286047009.2,N
1501300275.5,286047010.5,N
1501300295.3,286047012.4,N
1501300315.1,286047006.5,N
1501300335.9,286047009.3,N
1501300355.7,286047010.6,N
1501300375.5,286047009.1,N
1501300395.4,286047010.3,N
1501300415.2,286047006.2,N
1501300435.0,286047006.5,N
1501300435.9,286047006.5,N
1501300455.8,286047009.0,N
1501300475.6,286047006.7,N
1501300495.4,286047009.2,N
1501300515.3,286047010.1,N
1501300535.1,286047011.9,N
1501300536.0,286047011.9,N
1501300555.8,286047012.1,N
1501300575.6,286047010.5,N
1501300595.5,286047008.8,N
1501300615.3,286047004.5,N
1501300635.1,286047007.9,N
1501300655.9,286047009.9,N
1501300675.7,286047010.8,N
1501300695.5,286047010.0,N
1501300715.4,286047008.7,N
1501300735.2,286047006.6,N
1501300755.0,286047008.5,N
1501300755.9,286047008.5,N
1501300775.8,286047010.2,N
1501300795.6,286047010.4,N
